[[{"header":{"parameterUnit":"m.s-1","parameterCategory":1,"la1":30.2991,"la2":30.254,"lo1":-89.0895,"lo2":-89.0444,"dy":0.0017,"dx":0.0017,"nx":28,"ny":28,"refTime":"2024-07-18T09:00:00:Z","depth":0,"parameterNumber":2,"parameterNumberName":"U-component_of_WINDS"},"data":[0,0,0,0,0,0,0,0,0,0,0,0,0,0,0,0,0,0,0,0,0,0,0,0,0,0,0,0,0,0,0,0,0,0,0,0,0,0,0,0,0,0,0,0,0,0,0,0,0,0,0,0,0,0,0,0,0,0,0.0137,0.0137,0,0.0133,0.0133,0.0133,0.0169,0.017,0.0171,0.0172,0.0165,0.0164,0.0163,0,0,0,0,0,0,0,0,0,0,0,0,0,0.0173,0.0172,0.0137,0.0137,0.0137,0.0133,0.0133,0.0132,0.0169,0.017,0.0171,0.0173,0.0165,0.0164,0.0163,0,0,0,0,0,0,0,0,0,0,0,0,0,0.0162,0.0172,0.0137,0.0154,0.0156,0.0133,0.0133,0.0132,0.0169,0.017,0.0172,0.0173,0.0166,0.0164,0.0162,0.0121,0,0,0.0157,0.0156,0,0,0,0,0,0,0,0,0.0162,0.016,0.0152,0.0153,0.0155,0.0153,0.0143,0.0129,0.0168,0.0164,0.0172,0.0174,0.0159,0.0158,0.0154,0.0121,0.012,0.0157,0.0156,0.0155,0.0155,0,0,0,0,0,0,0,0.0163,0.0161,0.0135,0.0152,0.0153,0.0161,0.0162,0.014,0.0153,0.0164,0.0167,0.0166,0.0161,0.0156,0.0154,0.012,0.0157,0.0155,0.0154,0.0154,0.0052,0.005,0,0,0,0,0,0,0.0162,0.0161,0.0135,0.0135,0.0162,0.016,0.016,0.0152,0.0153,0.0155,0.0165,0.0168,0.0158,0.0156,0.0154,0.0105,0.0155,0.0154,0.0153,0.0053,0.0051,0.0049,0,0,0,0,0,0,0.0162,0.0159,0.0135,0.0149,0.0146,0.0157,0.0148,0.0151,0.0146,0.0154,0.0156,0.0158,0.0159,0.0157,0.0129,0.0105,0.0153,0.0151,0.0055,0.0053,0.005,0.0007,0,0,0,0,0,0,0.0163,0.0159,0.0144,0.0148,0.0145,0.0111,0.0147,0.015,0.0144,0.0147,0.0148,0.0149,0.016,0.0131,0.0127,0.0104,0.015,0.0057,0.0054,0.0051,0.001,0.0003,-0.0003,0,0,0,0,0,0.0164,0.0132,0.0143,0.014,0.0127,0.0109,0.0108,0.0122,0.0142,0.0126,0.0131,0.0149,0.0109,0.0128,0.0124,0.0099,0.0059,0.0055,0.0051,0.0013,0.0004,-0.0003,0,0,0,0,0,0,0.0123,0.0132,0.0145,0.0113,0.011,0.0116,0.0097,0.0112,0.0103,0.0107,0.0124,0.0124,0.0093,0.0094,0.0115,0.0059,0.0087,0.0082,0.006,0.0051,0.0045,0.0044,0.0148,0,0,0,0,0,0.0111,0.0097,0.0105,0.0076,0.0074,0.0085,0.0078,0.0089,0.0087,0.0086,0.0088,0.0084,0.0071,0.0061,0.0049,0.0011,0.0011,-0.0008,-0.0015,-0.002,-0.0025,-0.0047,-0.0055,0.0037,0.0037,0.0037,0,0,0.0084,0.0087,0.0077,0.0067,0.0067,0.005,0.0084,0.0066,0.0053,0.0082,0.0056,0.0058,0.0055,0.0022,0.0007,0.0021,-0.0051,-0.0025,-0.003,-0.0032,-0.0051,-0.006,-0.0068,0.0034,0.0035,0.0035,0,0,0.0027,0.0029,0.0004,0.0003,0.0002,0.001,0.0004,0.0007,0.0009,-0.0016,0.0005,-0.001,-0.0033,-0.0037,-0.0042,-0.01,-0.0084,-0.0104,-0.014,-0.0161,-0.0169,-0.0175,-0.0197,-0.0205,-0.0109,-0.0109,-0.0109,0,-0.0006,-0.0029,-0.0011,-0.0031,-0.0036,-0.0009,-0.0035,-0.0038,-0.0043,-0.0048,-0.0032,-0.0061,-0.0061,-0.0096,-0.011,-0.0114,-0.0122,-0.0105,-0.0169,-0.0175,-0.0181,-0.0202,-0.021,-0.0112,-0.0111,-0.0111,-0.0111,0,-0.007,-0.0086,-0.0106,-0.0111,-0.0119,-0.0142,-0.0129,-0.0138,-0.0126,-0.0121,-0.0147,-0.0147,-0.0159,-0.0166,-0.0154,-0.0199,-0.019,-0.0171,-0.0143,-0.0192,-0.0212,-0.022,-0.0115,-0.0114,-0.0114,-0.0113,0,0,-0.0155,-0.0149,-0.0157,-0.0159,-0.0158,-0.0171,-0.0193,-0.0203,-0.0213,-0.0217,-0.0236,-0.0257,-0.024,-0.0245,-0.0234,-0.0252,-0.03,-0.0231,-0.0231,-0.0246,-0.0351,-0.0366,-0.0375,-0.0289,-0.029,-0.0291,-0.0351,0,-0.0211,-0.0247,-0.0232,-0.027,-0.0285,-0.026,-0.0279,-0.0281,-0.0276,-0.0289,-0.0284,-0.0299,-0.0275,-0.0278,-0.0295,-0.0291,-0.0321,-0.0286,-0.0308,-0.0309,-0.0309,-0.0385,-0.0401,-0.0458,-0.0358,-0.0359,-0.036,0,-0.0282,-0.0289,-0.0328,-0.0325,-0.0331,-0.0349,-0.0357,-0.037,-0.0372,-0.0367,-0.0373,-0.0358,-0.0381,-0.0351,-0.0383,-0.0359,-0.0367,-0.0366,-0.0368,-0.0371,-0.0339,-0.0392,-0.0475,-0.0484,-0.0372,-0.0371,-0.037,0,-0.0342,-0.036,-0.0387,-0.0389,-0.0386,-0.0399,-0.0398,-0.0399,-0.0406,-0.0414,-0.0419,-0.043,-0.0437,-0.0446,-0.0434,-0.0414,-0.0468,-0.0437,-0.0466,-0.0467,-0.048,-0.048,-0.0567,-0.0483,-0.0482,-0.0482,-0.0482,0,-0.0407,-0.0433,-0.0413,-0.043,-0.0458,-0.044,-0.0469,-0.0466,-0.0466,-0.0483,-0.0461,-0.0477,-0.046,-0.0475,-0.0466,-0.0495,-0.0497,-0.0495,-0.0493,-0.0498,-0.0498,-0.0504,-0.0501,-0.0484,-0.0484,-0.0484,-0.0483,0,-0.0479,-0.0466,-0.0494,-0.0488,-0.0487,-0.0508,-0.0504,-0.052,-0.0513,-0.0534,-0.0537,-0.0527,-0.0543,-0.0532,-0.0549,-0.0543,-0.058,-0.0572,-0.058,-0.0578,-0.0608,-0.0606,-0.0704,-0.0716,-0.0622,-0.0623,-0.0623,0,-0.0523,-0.0541,-0.0538,-0.0546,-0.0547,-0.0561,-0.0569,-0.0552,-0.0561,-0.0565,-0.0581,-0.0594,-0.0605,-0.0632,-0.0627,-0.064,-0.0632,-0.0666,-0.0634,-0.0639,-0.0635,-0.0635,-0.0637,-0.0673,-0.0674,-0.0675,-0.0676,0,-0.0602,-0.0595,-0.0605,-0.0614,-0.0623,-0.063,-0.0635,-0.0644,-0.0627,-0.0638,-0.0654,-0.0662,-0.0678,-0.0693,-0.0704,-0.0704,-0.0688,-0.0685,-0.0693,-0.0699,-0.0704,-0.0703,-0.0599,-0.0683,-0.0683,-0.0682,-0.0682,-0.0681,-0.0662,-0.0678,-0.0678,-0.0691,-0.0692,-0.0697,-0.0712,-0.0706,-0.0719,-0.073,-0.072,-0.0739,-0.0742,-0.0754,-0.0757,-0.0772,-0.0759,-0.077,-0.0773,-0.0776,-0.0781,-0.0699,-0.0774,-0.0774,-0.0774,-0.0773,-0.0773,0,-0.0741,-0.074,-0.0752,-0.0759,-0.0769,-0.0751,-0.0756,-0.0766,-0.0783,-0.0786,-0.0797,-0.0816,-0.083,-0.0825,-0.0838,-0.0852,-0.0845,-0.0856,-0.0856,-0.0857,-0.0791,-0.0784,-0.0862,-0.0862,-0.0862,-0.0862,-0.0862,-0.0862,-0.0784,-0.0811,-0.0803,-0.0831,-0.0829,-0.0847,-0.0852,-0.0857,-0.0859,-0.0881,-0.0892,-0.0889,-0.0889,-0.0902,-0.0915,-0.0913,-0.092,-0.0934,-0.093,-0.087,-0.0861,-0.0853,-0.0846,-0.0935,-0.0935,-0.0994,-0.0995,-0.0995]},{"header":{"parameterUnit":"m.s-1","parameterCategory":1,"la1":30.2991,"la2":30.254,"lo1":-89.0895,"lo2":-89.0444,"dy":0.0017,"dx":0.0017,"nx":28,"ny":28,"refTime":"2024-07-18T09:00:00:Z","depth":0,"parameterNumber":3,"parameterNumberName":"V-component_of_WINDS"},"data":[0,0,0,0,0,0,0,0,0,0,0,0,0,0,0,0,0,0,0,0,0,0,0,0,0,0,0,0,0,0,0,0,0,0,0,0,0,0,0,0,0,0,0,0,0,0,0,0,0,0,0,0,0,0,0,0,0,0,0.3896,0.3896,0,0.3967,0.3968,0.3968,0.3986,0.3986,0.3985,0.3985,0.4057,0.4059,0.4061,0,0,0,0,0,0,0,0,0,0,0,0,0,0.3774,0.3776,0.3896,0.3896,0.3897,0.3967,0.3968,0.3969,0.3986,0.3986,0.3985,0.3985,0.4056,0.4059,0.4061,0,0,0,0,0,0,0,0,0,0,0,0,0,0.3834,0.3776,0.3895,0.3915,0.3917,0.3967,0.3968,0.3969,0.3986,0.3986,0.3985,0.3984,0.4055,0.4058,0.4062,0.4097,0,0,0.4072,0.4074,0,0,0,0,0,0,0,0,0.383,0.3838,0.3911,0.3913,0.3916,0.3967,0.3951,0.4012,0.3987,0.396,0.3985,0.3984,0.4027,0.4033,0.4048,0.41,0.4103,0.4073,0.4075,0.4076,0.4077,0,0,0,0,0,0,0,0.3826,0.3835,0.3924,0.3912,0.3915,0.3919,0.3927,0.3963,0.3996,0.3962,0.3964,0.3972,0.4028,0.4044,0.405,0.4104,0.4073,0.4076,0.4078,0.4079,0.419,0.4191,0,0,0,0,0,0,0.3819,0.3832,0.3921,0.3926,0.3871,0.3922,0.3931,0.3951,0.3996,0.4002,0.3972,0.3973,0.4039,0.4045,0.4052,0.4097,0.4076,0.408,0.4082,0.4189,0.419,0.4191,0,0,0,0,0,0,0.3816,0.3827,0.3919,0.3879,0.3891,0.3925,0.3948,0.3953,0.3969,0.4004,0.401,0.3983,0.4038,0.4047,0.4086,0.41,0.4081,0.4084,0.4188,0.4189,0.4191,0.4186,0,0,0,0,0,0,0.3813,0.3826,0.384,0.3879,0.3893,0.3952,0.3949,0.3955,0.3975,0.3976,0.4015,0.4021,0.4039,0.4081,0.4089,0.4104,0.4087,0.4187,0.4189,0.419,0.4185,0.4187,0.4189,0,0,0,0,0,0.3808,0.3835,0.384,0.3851,0.3912,0.3952,0.396,0.398,0.3976,0.399,0.4013,0.402,0.4097,0.4084,0.4094,0.411,0.4186,0.4188,0.419,0.4185,0.4187,0.4189,0,0,0,0,0,0,0.3796,0.3841,0.3847,0.3888,0.3916,0.3955,0.3974,0.3982,0.4012,0.4011,0.4035,0.4044,0.4081,0.4099,0.4085,0.4147,0.4141,0.4145,0.4134,0.4136,0.4138,0.4133,0.409,0,0,0,0,0,0.3798,0.3828,0.3865,0.3897,0.3911,0.394,0.3959,0.3972,0.4002,0.4014,0.4039,0.4068,0.4099,0.4118,0.4148,0.4188,0.4197,0.4204,0.4206,0.4207,0.421,0.4233,0.4237,0.4197,0.4197,0.4197,0,0,0.3802,0.3831,0.3848,0.3896,0.3919,0.3949,0.395,0.3982,0.4004,0.4019,0.4057,0.4076,0.411,0.4149,0.4168,0.4166,0.4223,0.4209,0.421,0.4213,0.4235,0.4239,0.4242,0.4199,0.4198,0.4198,0,0,0.3826,0.385,0.388,0.3904,0.394,0.3959,0.3966,0.4004,0.4017,0.4056,0.4068,0.4095,0.4147,0.4171,0.4189,0.4222,0.4229,0.4231,0.424,0.4262,0.4265,0.4268,0.4281,0.4285,0.4234,0.4234,0.4234,0,0.3827,0.3873,0.3894,0.3926,0.3947,0.3961,0.3992,0.4013,0.4057,0.4071,0.4068,0.4134,0.4158,0.4203,0.4211,0.4226,0.4235,0.4227,0.4263,0.4266,0.4269,0.4281,0.4286,0.4234,0.4234,0.4234,0.4234,0,0.3873,0.3905,0.3924,0.3967,0.399,0.402,0.4046,0.4066,0.4078,0.4097,0.4136,0.4165,0.4201,0.4213,0.4224,0.426,0.4258,0.4259,0.4254,0.4273,0.4285,0.4289,0.4234,0.4234,0.4234,0.4234,0,0,0.3891,0.3945,0.3952,0.3972,0.4012,0.4037,0.4068,0.4104,0.4122,0.4151,0.4178,0.4222,0.4223,0.4245,0.4258,0.4277,0.4302,0.4276,0.4277,0.4281,0.4344,0.4344,0.4349,0.4307,0.4308,0.4308,0.4342,0,0.392,0.3978,0.3998,0.4044,0.4074,0.4089,0.4116,0.4143,0.4162,0.419,0.421,0.4241,0.424,0.4253,0.4273,0.4295,0.4315,0.4293,0.4332,0.4333,0.4324,0.4355,0.4354,0.4384,0.4346,0.4347,0.4348,0,0.3962,0.3993,0.4043,0.4081,0.4094,0.4118,0.4153,0.4179,0.421,0.4223,0.4247,0.4259,0.4292,0.4284,0.433,0.4314,0.4331,0.4345,0.4346,0.4351,0.4342,0.4361,0.4394,0.4399,0.4355,0.4354,0.4354,0,0.3972,0.4025,0.4063,0.4079,0.4123,0.414,0.4159,0.419,0.421,0.424,0.4254,0.4287,0.4306,0.4331,0.4352,0.4344,0.4396,0.439,0.4407,0.4407,0.4418,0.4417,0.4455,0.4428,0.4428,0.4428,0.4428,0,0.4003,0.4033,0.4067,0.409,0.4124,0.4147,0.418,0.42,0.4227,0.4254,0.4268,0.4293,0.4318,0.4346,0.4363,0.4398,0.4406,0.4417,0.4421,0.4417,0.4415,0.4429,0.4427,0.4429,0.4429,0.4428,0.4428,0,0.4019,0.4043,0.4085,0.4123,0.4134,0.4157,0.419,0.4213,0.4232,0.4266,0.4275,0.4305,0.4338,0.4361,0.4404,0.4415,0.4454,0.4458,0.4444,0.4446,0.4463,0.4461,0.4511,0.4519,0.4485,0.4486,0.4486,0,0.4038,0.4062,0.4103,0.4122,0.4142,0.4172,0.4193,0.4216,0.4237,0.4275,0.4293,0.4328,0.4357,0.441,0.4436,0.4469,0.4473,0.4489,0.4478,0.4473,0.4475,0.4473,0.4476,0.449,0.4491,0.4491,0.4491,0,0.4069,0.408,0.411,0.4145,0.417,0.4198,0.4226,0.4241,0.4268,0.4292,0.4327,0.4349,0.4394,0.4428,0.4463,0.4483,0.4492,0.4494,0.45,0.4495,0.4487,0.4492,0.4449,0.4493,0.4493,0.4492,0.4492,0.4492,0.4088,0.411,0.4142,0.4176,0.4199,0.4225,0.4249,0.4271,0.4301,0.4339,0.435,0.4387,0.4417,0.4466,0.4486,0.4515,0.4513,0.4522,0.4524,0.4526,0.4526,0.4482,0.4521,0.4521,0.4521,0.4521,0.4521,0,0.412,0.4142,0.4172,0.4212,0.4238,0.4244,0.4275,0.4297,0.4329,0.4357,0.4386,0.4426,0.4459,0.4487,0.4522,0.4539,0.4544,0.4548,0.4547,0.4552,0.4525,0.4517,0.4543,0.4543,0.4543,0.4543,0.4543,0.4543,0.414,0.4178,0.4192,0.4242,0.4263,0.43,0.4317,0.4341,0.4364,0.4408,0.4437,0.4455,0.4483,0.4519,0.455,0.4558,0.457,0.4573,0.4581,0.4556,0.4553,0.4551,0.4543,0.4575,0.4575,0.4605,0.4605,0.4606]}]]